Weather Roundup
Issued by NWS

Home | Current Version | Previous Version | Text Only | Print | Product List | Glossary On
Versions: 1 2 3 4 5 6 7 8 9 10 11 12 13 14 15 16 17 18 19 20 21 22 23 24 25 26 27 28 29 30 31 32 33 34 35 36 37 38 39 40 41 42 43 44 45 46 47 48 49 50
857
NZUS93 KARX 280910
HRRWXR

CURRENT HOURLY OBSERVATIONS ACROSS
MUCH OF THE UPPER MISSISSIPPI VALLEY
NATIONAL WEATHER SERVICE LA CROSSE WI
400 AM CDT THU JUL 28 2016


...SOUTHEAST MINNESOTA...


CITY           SKY/WX    TMP DP  RH WIND       PRES   REMARKS
ROCHESTER      CLOUDY    67  66  97 N9        29.96R
ROCHESTER/MAYO CLOUDY    67  67 100 NW5       29.95S
WINONA         CLOUDY    70  66  88 CALM      29.93S
AUSTIN         MOCLDY    66  63  88 N9        29.95F
ALBERT LEA     CLOUDY    64  64 100 NW7       29.97S FOG
DODGE CENTER   CLOUDY    66  64  94 N8        29.97S
PRESTON        CLOUDY    66  64  94 N7        29.95R
OWATONNA       CLOUDY    66  64  94 N6        29.97S
FARIBAULT      CLOUDY    66  64  94 N7        29.98S
$$

...ELSEWHERE IN MINNESOTA...


CITY           SKY/WX    TMP DP  RH WIND       PRES   REMARKS
MINNEAPOLIS    CLOUDY    66  62  87 N10       29.99R
INTNL FALLS    MOCLDY    60  53  77 NE7       30.10S
DULUTH         CLOUDY    60  56  86 NE6       30.06F
RED WING       CLOUDY    66  64  94 N7        29.95S
REDWOOD FALLS  CLOUDY    64  61  90 NW6       30.00F
MANKATO        CLOUDY    64  61  88 N8        29.99S
WORTHINGTON    CLEAR     61  58  90 N5        30.03S
FAIRMONT       MOCLDY    64  57  77 N5        29.99S
$$

...SOUTHWEST WISCONSIN...


CITY           SKY/WX    TMP DP  RH WIND       PRES   REMARKS
LA CROSSE      CLOUDY    69  66  90 N6        29.91R
PRAIRIE DU CHI CLOUDY    67  66  94 CALM      29.89S FOG
BOSCOBEL       FOG       69  68  96 CALM      29.90F VSB 1/4
LONE ROCK      FOG       66  66 100 CALM      29.91S VSB 1/2
PLATTEVILLE    CLEAR     65  65 100 N3        29.91S
FORT MC COY    CLOUDY    66  66  99 CALM      29.92S
CAMP DOUGLAS   CLOUDY    67  67  99 E3        29.92S
MAUSTON-NEW LI CLOUDY    68  67  96 E3        29.92S
VIROQUA        CLOUDY    67  67 100 CALM      29.92F
WIS DELLS      MOCLDY    68  66  93 E6        29.92S
$$

...ELSEWHERE IN WISCONSIN...


CITY           SKY/WX    TMP DP  RH WIND       PRES   REMARKS
MILWAUKEE      CLOUDY    69  66  90 N9        29.92S
MADISON        PTCLDY    69  66  90 E3        29.91R
GREEN BAY      CLOUDY    66  65  96 NE8       29.96S
EAU CLAIRE     CLOUDY    66  65  96 NE7       29.95F
BLACK RVR FLS  RAIN      66  66 100 N3        29.92S
MEDFORD        HVY RAIN  63  63 100 NE6       29.98S
WAUSAU         LGT RAIN  63  62  97 NE9       29.96S
WIS RAPIDS     MOCLDY    65  62  90 E8        29.95S
MARSHFIELD     CLOUDY    66  63  90 E8        29.94F
RICE LAKE      CLOUDY    65  63  93 N5        30.01S
$$

...NORTHEAST IOWA...


CITY           SKY/WX    TMP DP  RH WIND       PRES   REMARKS
WATERLOO       CLEAR     66  65  96 NW9       29.92R
DUBUQUE        CLEAR     66  65  96 SW3       29.91F
DECORAH        CLOUDY    68  68 100 NW5       29.92R
MASON CITY     PTCLDY    64  63  96 NW7       29.98S
CHARLES CITY   MOCLDY    66  66 100 NW6       29.94F FOG
OELWEIN        MOCLDY    66  66 100 NW7       29.93S FOG
$$

...ELSEWHERE IN IOWA...


CITY           SKY/WX    TMP DP  RH WIND       PRES   REMARKS
DES MOINES     MOCLDY    74  70  87 N6        29.94R
IOWA CITY      CLEAR     68  66  93 W3        29.91F
FORT DODGE     CLEAR     66  64  94 N5        29.97F
MARSHALLTOWN   CLEAR     66  65  96 NW6       29.94R
CEDAR RAPIDS   CLEAR     65  65 100 CALM      29.90F FOG
$$

...NORTHERN ILLINOIS...


CITY           SKY/WX    TMP DP  RH WIND       PRES   REMARKS
CHICAGO-OHARE  PTCLDY    72  65  78 CALM      29.89F
CHICAGO-MIDWAY PTCLDY    76  66  71 CALM      29.89F
MOLINE         PTCLDY    71  67  87 CALM      29.88F
ROCKFORD       CLOUDY    70  66  87 CALM      29.91S
PEORIA         CLOUDY    74  72  93 CALM      29.88F
$$

NOTE: "FAIR" INDICATES FEW OR NO CLOUDS BELOW 12,000 FEET WITH NO
SIGNIFICANT WEATHER AND/OR OBSTRUCTIONS TO VISIBILITY. WIND
SPEEDS ARE IN MILES-PER-HOUR.




USA.gov is the U.S. government's official web portal to all federal, state and local government web resources and services.